カタログに戻る

DISKSAT A

運用中科学VLEO
NORAD 67222·PAYLOAD·🇺🇸 United States

打ち上げ Dec 18, 2025 から Wallops Flight Facility

Loading…

次のパス (今後24時間)

TLE

最新Source: Space-Track

元期: Sep 13, 2026, 21:48 UTC

1 67222U 25305D   26256.90885559  .00003076  00000-0  19897-3 0  9997
2 67222  45.0048 331.7523 0007107 304.6453  55.3753 15.10430844 40727

AllMySatでDISKSAT Aをリアルタイム追跡

Download on the App Store